Location: Okie-Tex Star Party
(36.8978°N, 102.9520°W)
Time: 13:27:23
(UTC-06:00)

Daily predictions for brighter satellites

Satellite Brightness Start Highest point End
(mag) Time Altitude Azimuth Time Altitude Azimuth Time Altitude Azimuth
Cosmos 1818 3.7 18:59:04 10° SSW 19:04:30 86° WNW 19:10:00 10° NNE
Cosmos 407 Rocket 3.6 19:00:16 10° SSW 19:05:30 85° WNW 19:10:50 10° NNE
Cosmos 2219 4.3 19:05:37 10° SSE 19:09:58 23° E 19:14:19 10° NE
Cosmos 676 Rocket 4.0 19:05:00 10° S 19:10:09 72° ESE 19:15:21 10° NNE
Cosmos 2360 Rocket 2.8 19:05:18 10° N 19:10:27 35° ENE 19:15:34 10° SE
DNEPR-1 R/B 3.5 19:12:49 10° NNW 19:17:02 85° WSW 19:21:22 10° SSE
Meteor 1-11 Rocket 4.1 19:14:35 10° SSE 19:19:59 44° E 19:25:32 10° NNE
BREEZE-M DEB (TANK) 3.3 19:15:59 10° SW 19:21:29 42° SE 19:23:46 13° ENE
Cosmos 1461 3.0 19:17:39 10° NNW 19:21:41 79° WSW 19:25:49 10° SSE
Cosmos 1602 4.0 19:19:39 10° SSE 19:23:21 47° E 19:27:06 10° NNE
Nadezhda 1 Rocket 4.3 19:18:12 10° NNW 19:24:14 70° W 19:30:15 10° S
Cosmos 1140 Rocket 3.5 19:19:57 10° S 19:24:57 58° ESE 19:30:01 10° NNE
Resurs 01 Rocket 2.6 19:22:29 10° SE 19:26:06 25° ENE 19:29:43 10° NNE
DELTA 2 R/B (1) 3.6 19:20:44 10° WNW 19:26:22 85° NNE 19:31:31 12° ESE
Cosmos 1300 Rocket 3.7 19:22:24 10° SSE 19:26:39 50° E 19:30:57 10° NNE
Abrixas rocket 3.3 19:24:37 10° SSW 19:27:34 29° SE 19:29:39 16° E
ATLAS CENTAUR R/B 3.5 19:25:57 10° S 19:29:18 16° SE 19:30:46 13° ESE
Cosmos 614 Rocket 4.1 19:27:48 10° S 19:32:41 50° ESE 19:37:35 10° NNE
COSMO-SKYMED 1 4.3 19:29:51 10° N 19:33:51 37° WNW 19:37:50 10° SW
ALOS 2.6 19:30:31 10° SE 19:34:55 44° ENE 19:39:21 10° N
Cosmos 2292 Rocket 4.4 19:31:15 10° S 19:36:11 81° W 19:42:57 10° N
FREGAT/IRIS 2.5 19:33:36 10° SSE 19:36:40 71° ENE 19:39:45 10° N
Cosmos 1833 4.3 19:31:10 10° SSW 19:36:53 84° WNW 19:42:34 10° NNE
Spot 2 Rocket 3.9 19:36:21 10° SE 19:40:59 38° ENE 19:45:40 10° N
Helios 1A 4.3 19:40:56 18° ENE 19:41:20 19° ENE 19:44:14 10° NNE
Cosmos 1340 2.6 19:38:57 10° N 19:42:46 84° E 19:46:32 10° S
Resurs 1-3 4.3 19:39:51 10° SE 19:43:45 33° ENE 19:47:41 10° N
Cosmos 2181 Rocket 4.0 19:38:15 10° N 19:44:30 72° E 19:50:50 10° SSE
Cosmos 2333 Rocket 3.8 19:42:23 10° NNE 19:45:36 15° NE 19:46:14 15° ENE
SL-16 R/B 3.5 19:41:57 10° NW 19:47:16 42° WSW 19:52:34 10° S
Cosmos 1850 Rocket 4.0 19:47:09 10° S 19:52:22 66° ESE 19:57:40 10° NNE
OTV 4 2.9 19:52:12 10° S 19:52:48 11° SSE 19:52:48 11° SSE
HJ-1C 3.2 19:51:39 10° SSE 19:55:00 71° ENE 19:58:22 10° N
Helios 1B rocket 3.2 19:54:33 24° ENE 19:55:51 29° E 19:59:28 10° SSE
Cosmos 1709 Rocket 4.5 19:50:26 10° SSW 19:56:37 64° W 20:02:44 10° N
Cosmos 2074 Rocket 4.1 19:50:42 10° SSE 19:56:43 53° E 20:02:47 10° NNE
Tiangong 2 2.3 19:54:05 10° W 19:56:58 36° SSW 19:58:32 21° SSE
SJ-6B 3.3 19:54:16 10° S 19:58:16 63° W 20:02:11 10° NNW
Cosmos 2184 Rocket 4.1 19:53:38 10° SSE 19:59:45 54° E 20:05:50 10° NNE
FengYun 1-2 T 4.1 19:55:11 10° SSE 20:00:38 77° ENE 20:06:09 10° N
Okean 1 Rocket 3.1 19:57:05 10° S 20:01:33 84° W 20:06:04 10° N
Genesis I 3.7 19:58:55 10° NNW 20:02:38 39° NE 20:03:08 37° ENE
Cosmos 2322 Rocket 4.2 19:58:45 10° NW 20:03:31 29° WSW 20:08:16 10° SSW
SAR-Lupe-4 4.3 20:04:46 34° NE 20:04:46 34° NE 20:07:32 10° N
Hubble Space Telescope 2.8 20:04:03 10° SSW 20:06:23 15° SSE 20:06:47 15° SSE
Meteor 1-5 Rocket 4.3 20:01:22 10° S 20:07:12 58° E 20:12:59 10° NNE
FENGYUN 3A 3.6 20:02:16 10° SSE 20:07:41 89° WSW 20:13:09 10° NNW
Meteor 1-19 Rocket 4.5 20:06:36 10° NNW 20:12:17 73° W 20:18:02 10° S
Intercosmos 24 4.1 20:10:34 10° S 20:14:33 72° E 20:20:10 10° N
BREEZE-M DEB (TANK) 2.9 20:13:14 10° NW 20:16:02 50° NE 20:17:19 39° E
Gbstr 26 Del rocket 3.9 20:14:17 10° WSW 20:17:50 36° NNW 20:19:28 24° NNE
Cosmos 1238 Rocket 4.1 20:15:23 10° NNW 20:18:02 30° W 20:20:43 10° SSW
CZ-2D R/B 3.1 20:18:53 62° ESE 20:19:13 66° ENE 20:23:00 10° N
Cosmos 2322 4.0 20:14:31 10° NNW 20:20:12 69° WSW 20:25:51 10° S
GPS 2-04 Rocket1 3.0 20:16:16 10° WSW 20:20:29 57° SSE 20:21:01 52° SE
Cosmos 1025 Rocket 2.9 20:19:11 10° N 20:23:35 76° E 20:25:45 29° SSE
H-2A R/B 2.8 20:21:38 17° S 20:24:21 74° WSW 20:28:06 10° NNW
Cosmos 1536 3.7 20:21:58 10° SSW 20:25:49 48° W 20:29:43 10° N
Atlas Centaur 2 4.4 20:24:01 10° S 20:26:14 12° SSE 20:26:14 12° SSE
GEOS 3 Rocket 4.2 20:21:37 10° NNE 20:26:44 56° NW 20:31:53 10° SW
Cosmos 2154 Rocket 4.2 20:22:44 10° SSE 20:28:44 47° E 20:34:46 10° NNE
Okean 1-7 Rocket 3.9 20:25:51 10° NNW 20:30:20 66° W 20:34:45 10° S
Cosmos 2285 Rocket 4.0 20:24:19 10° N 20:30:41 59° ENE 20:32:47 41° SE
Meteor 2-13 Rocket 4.3 20:27:54 10° S 20:33:54 68° E 20:39:57 10° NNE
BREEZE-M DEB (TANK) 4.1 20:30:26 10° WNW 20:35:02 31° SW 20:35:45 27° SSW
COSMOS 2428 2.6 20:29:58 10° NNW 20:35:41 82° ENE 20:37:45 42° SSE
Cosmos 2237 4.3 20:30:12 10° NNW 20:35:56 78° WSW 20:39:35 23° SSE
Meteor 1-23 Rocket 4.3 20:30:09 10° N 20:35:58 79° W 20:41:41 10° S
Cosmos 2333 4.1 20:31:15 10° NNW 20:37:00 73° ENE 20:38:23 52° SE
Meteor 2-4 Rocket 4.1 20:32:38 10° NNW 20:38:03 59° W 20:43:19 10° S
Cosmos 2237 Rocket 3.5 20:34:38 10° N 20:37:44 24° NNE 20:37:44 24° NNE
NOSS 0 Rocket 4.3 20:47:24 10° NNW 20:52:27 48° NNE 20:52:27 48° NNE
Cosmos 2219 4.2 20:48:15 10° SW 20:53:45 45° WNW 20:59:15 10° N
Cosmos 2360 Rocket 4.0 20:49:28 10° NW 20:54:17 29° WSW 20:59:06 10° SSW
Cosmos 2219 Rocket 2.4 20:50:49 10° NNW 20:55:22 55° NNE 20:55:22 55° NNE
Cosmos 2227 Rocket 4.1 20:54:14 10° S 20:55:24 17° S 20:55:24 17° S
Resurs 01 Rocket 3.8 20:58:51 10° SSW 21:02:28 25° W 21:06:07 10° NW
SL-16 R/B 4.4 21:08:31 10° N 21:09:14 13° N 21:09:14 13° N
Cosmos 2333 Rocket 3.3 21:24:46 10° NNW 21:28:17 39° NNW 21:28:17 39° NNW
USA 229 DEB 4.2 21:35:15 10° NW 21:42:03 55° WSW 21:42:03 55° WSW
USA 229 4.2 21:35:20 10° NW 21:42:06 56° WSW 21:42:06 56° WSW
